Regional Weather Roundup
Issued by NWS

Home | Current Version | Previous Version | Graphics & Text | Print | Product List | Glossary Off
Versions: 1 2 3 4 5 6 7 8 9 10 11 12 13 14 15 16 17 18 19 20 21 22 23 24 25 26 27 28 29 30 31 32 33 34 35 36 37 38 39 40 41 42 43 44 45 46 47 48 49 50

000
ASUS43 KDTX 210801
RWRMI
MICHIGAN HOURLY REGIONAL WEATHER ROUNDUP
NATIONAL WEATHER SERVICE DETROIT/PONTIAC MI
400 AM EDT TUE APR 21 2015

NOTE: "FAIR" INDICATES FEW OR NO CLOUDS BELOW 12,000 FEET WITH NO
SIGNIFICANT WEATHER AND/OR OBSTRUCTION TO VISIBILITY.

MIZ047>049-052>055-059>063-066>070-074>076-081>083-210900-
SOUTHEAST LOWER MICHIGAN

CITY           SKY/WX    TMP DP  RH WIND       PRES   REMARKS
ADRIAN         CLOUDY    41  34  76 SW13      29.61F
ALMA           LGT RAIN  40  35  80 SW12      29.52R WCI  34
ANN ARBOR      CLOUDY    42  32  67 SW12      29.58F
BAD AXE        CLOUDY    40  35  80 SW12G18   29.51R WCI  33
CARO           CLOUDY    41  35  79 SW6       29.51S
DETROIT CITY   CLOUDY    45  31  58 W14       29.58F
DETROIT        CLOUDY    44  32  62 S16       29.60F
FLINT          CLOUDY    44  32  62 SW10      29.55S
GROSSE ILE     CLEAR     43  34  70 SW14G20   29.60S
HILLSDALE      MOCLDY    41  36  80 SW13G18   29.59S
HOWELL         CLOUDY    39  34  83 S5        29.55F

CITY           SKY/WX    TMP DP  RH WIND       PRES   REMARKS
JACKSON        MOCLDY    41  33  73 SW14      29.57S
LAMBERTVILLE   PTCLDY    43  32  65 SW10G16   29.63S
LANSING        CLOUDY    41  32  70 SW8       29.54F
LAPEER         CLOUDY    42  33  70 SW12      29.54S
MASON          CLOUDY    41  32  72 SW3       29.55F
MONROE         CLEAR     43  34  70 SW10G17   29.60S
PONTIAC        LGT RAIN  42  32  67 SW20G29   29.55S
PORT HOPE        N/A     41  36  82 VRB6      29.48S
PORT HURON     CLOUDY    43  34  70 SW6       29.56F
TRI CITIES     CLOUDY    42  35  76 SW10      29.51S
TROY           CLOUDY    45  32  60 SW10G17   29.59S
SAGINAW HB     CLOUDY    41  36  81 SW7       29.51F
$$
MIZ043>046-050>051-056>058-064>065-071>073-077>080-210900-
SOUTHWEST LOWER MICHIGAN

CITY           SKY/WX    TMP DP  RH WIND       PRES   REMARKS
BATTLE CREEK   MOCLDY    41  33  73 SW16      29.57S
BENTON HARBOR  CLOUDY    42  34  73 SW18G26   29.59F
BIG RAPIDS     CLOUDY    38  33  82 SW6       29.46F WCI  34
COLDWATER      MOCLDY    41  34  76 SW10G18   29.59S
FREMONT        CLOUDY    38  34  85 SW10      29.49S WCI  31
HOLLAND        CLOUDY    42  32  67 SW21G31   29.55S
GRAND RAPIDS   CLOUDY    41  31  67 SW18G25   29.52F
IONIA          CLOUDY    41  34  74 SW13      29.52S
KALAMAZOO      MOCLDY    42  32  67 SW12      29.58S
LUDINGTON      CLOUDY    40  35  80 SW10G18   29.46S WCI  34
MARSHALL       MOCLDY    40  33  76 SW13G20   29.57R WCI  32
MOUNT PLEASANT CLOUDY    40  33  77 SW9       29.49S WCI  33
MUSKEGON       CLOUDY    40  33  76 SW16      29.51F WCI  31
SOUTH HAVEN    PTCLDY    42  36  76 SW15G22   29.57S
$$
MIZ016>042-210900-
NORTHERN LOWER MICHIGAN

CITY           SKY/WX    TMP DP  RH WIND       PRES   REMARKS
ALPENA         CLOUDY    40  34  79 W7        29.43R
BEAVER ISLAND  CLOUDY    37  32  84 SW14G23   29.36S WCI  28
BELLAIRE       CLOUDY    38  33  82 S6        29.41F WCI  34
CADILLAC       CLOUDY    36  33  89 SW12      29.42S WCI  28
CHARLEVOIX     CLOUDY    37  35  92 S8        29.42S WCI  31
FRANKFORT      CLOUDY    41  31  68 SW13      29.42S
GAYLORD        CLOUDY    34  34 100 SW14      29.39S WCI  25
GRAYLING       CLOUDY    36  32  87 S5        29.42S WCI  32
HARBOR SPRINGS CLOUDY    36  34  92 SW10      29.38S WCI  28
HOUGHTON LAKE  CLOUDY    37  32  82 SW13      29.44S WCI  29
MANISTEE       MOCLDY    39  28  65 SW13G18   29.44F WCI  32
OSCODA         CLOUDY    40  37  89 SW10G16   29.45S WCI  33
PELLSTON       CLOUDY    37  34  89 SW9       29.38S WCI  30
ROGERS CITY    CLOUDY    37  35  90 SW8       29.42R WCI  31
TRAVERSE CITY  CLOUDY    38  33  82 S6        29.40F WCI  33
$$
MIZ007>008-015-210900-
EASTERN UPPER MICHIGAN

CITY           SKY/WX    TMP DP  RH WIND       PRES   REMARKS
KINROSS        CLOUDY    36  34  93 S6        29.35S WCI  31
MACKINAC ISLAN CLOUDY    37  35  92 SW9G18    29.36S WCI  30
NEWBERRY       CLOUDY    33  33  99 S8        29.32S WCI  27
S. S. MARIE    CLOUDY    36  33  89 S7        29.34S WCI  30
$$
MIZ004>006-011>014-085-210900-
CENTRAL UPPER MICHIGAN

CITY           SKY/WX    TMP DP  RH WIND       PRES   REMARKS
MANISTIQUE     CLOUDY    37  34  91 SW5       29.32F WCI  33
ESCANABA       CLOUDY    36  30  80 SW10      29.33F WCI  28
MENOMINEE      CLOUDY    37  27  65 SW8       29.36F WCI  31
$$
MIZ001>003-009>011-084-210900-
WESTERN UPPER MICHIGAN

CITY           SKY/WX    TMP DP  RH WIND       PRES   REMARKS
IRON MOUNTAIN  CLOUDY    35  28  75 W10       29.30F WCI  27
HOUGHTON       LGT SNOW  33  31  92 W22G29    29.21F FOG     WCI  21
COPPER HARBOR    N/A     35  32  88 VRB6      29.21F WCI  30
IRONWOOD       CLOUDY    32  30  93 W17       29.28S WCI  21
$$

ABBREVIATIONS USED IN REMARKS
   TC - TEMPERATURE IN CELSIUS
  WCI - WIND CHILL INDEX
   HX - HEAT INDEX
  VSB - VISIBILITY




USA.gov is the U.S. government's official web portal to all federal, state and local government web resources and services.